Showing default

GSAT 18, 41793

Orbit data source: Space-Track

GSAT 18, 41793 is a payload satellite owned by ISRO (IN) in GEO that was launched on Wed, 05 Oct 2016 UTC via an ARIANE 5ECA launch vehicle from the French Guiana (FRGUI). Payload-class satellites include a variety of spacecraft equipped with specific instruments for various scientific and technological missions. These include communications satellites like Starlink; space stations such as the ISS; scientific satellites like the Hubble; Earth observation satellites from companies like Planet Labs, Umbra, and HawkEye 360; GPS; miniature CubeSats for education and research; and military/defense satellites.

Not visible in the next 10 days
Identifier
41793, 2016-060A
Orbit
GEO
Country
Flag of ININ / IND
Related business
Manufacturer
ISRO SAC/Banga
Mission
Operational Civil Communications
Bus & Motor
I3K, ISRO LAM
Mass
3,404 kg wet, ~1,200 kg dry
Launch date (UTC)
2016-10-05 (10 years ago)
Launch vehicle
ARIANE 5ECA
Launch site
French Guiana (FRGUI)
Object type
Payload
Rocket body
Debris
Shape & HBR
Box + 2 Pan, 7.8 m
Radar Cross Section
13.026 m², Medium (>0.1 m² and < 1m²)

Expand to show TLE details & history
Last TLE update: 2 days ago

TLE from 2 days ago
0 GSAT 18
1 41793U 16060A   26171.40667204 -.00000081  00000-0  00000+0 0  9992
2 41793   0.0673  95.4136 0005591 339.0481  54.5283  1.00271371 35566
Epoch: 2026-06-20T09:45Z
TLE epoch observation values (Epoch: 2026-06-20T09:45:36.464Z)
Latitude
0.05083°
Longitude
74.03097°
Altitude
35,772.441 km
Speed
3.076 km/s
True Right ascension
08h 36m 13s
True Declination
0° 03' 03"
Sunlit
Object was in daylight at epoch
Visualization orbit readout
Latitude
Unknown
Longitude
Unknown
Altitude
Unknown
Speed
Unknown
Apparent Right ascension
Unknown
Apparent Declination
Unknown
Sunlit
N/A
Visualization observer readout
Local Sidereal Time
21:38:06
Azimuth
Unknown
Elevation
Unknown
Doppler factor
Unknown
Orbital elements
Apogee altitude
35,811.356 km
Perigee altitude
35,764.206 km
Semi-major axis
42,165.918 km
Eccentricity
0.00056
Inclination
0.0673°
RAAN
95.4136°
Arg. of periapsis
339.0481°
True anomaly
54.5805°
Mean anomaly
54.5283°
Eccentric anomaly
54.5544°
Mean motion
0.25067 °/min
Orbital period
1,436.16 mins
BSTAR
0
Loading maneuver chart data...
Computing Atmospheric mass density...
Loading historical data...
Loading historical data...
Loading historical data...
Loading historical data...
Loading historical data...
Loading historical data...
Loading historical data...
Other satellites on launch #60 in the year 2016 (2016-10-05 UTC)

Documentation

Showing up to 5 results
|